EJU33KB EHAM-EGKK

Flight info

Callsign EJU33KB
Flight time 0h 47m
Altitude 24000
Route IDRID L980 ABNED Z344 AMRIV Q63 ARREK Y4 TEBRA
Aircraft A319/M-SDE3FGHIRWY/LB1

Departure

Time 2026-04-29 12:43
Airport Amsterdam Airport Schiphol (EHAM)

Arrival

Time 2026-04-29 13:30
Airport London Gatwick Airport (EGKK)
Time Latitude Longitude Altitude Speed Heading
2026-04-29 12:10 52.30961 4.75303 -2 ft 0 kts 148°
2026-04-29 12:29 52.30963 4.75301 -2 ft 3 kts 148°
2026-04-29 12:29 52.30985 4.75276 -2 ft 4 kts 135°
2026-04-29 12:29 52.30999 4.75242 -2 ft 4 kts 94°
2026-04-29 12:29 52.30997 4.75218 -2 ft 1 kts 58°
2026-04-29 12:30 52.30996 4.75215 -2 ft 0 kts 58°
2026-04-29 12:32 52.30998 4.75220 -2 ft 2 kts 58°
2026-04-29 12:33 52.31008 4.75246 21 ft 4 kts 57°
2026-04-29 12:33 52.31026 4.75293 -12 ft 6 kts 58°
2026-04-29 12:33 52.31052 4.75360 -2 ft 8 kts 57°
2026-04-29 12:33 52.31086 4.75447 -2 ft 10 kts 58°
2026-04-29 12:34 52.31148 4.75477 -2 ft 11 kts 347°
2026-04-29 12:34 52.31231 4.75459 -2 ft 13 kts 356°
2026-04-29 12:34 52.31294 4.75452 -2 ft 14 kts 356°
2026-04-29 12:34 52.31427 4.75439 -2 ft 13 kts 356°
2026-04-29 12:35 52.31485 4.75429 -3 ft 13 kts 343°
2026-04-29 12:35 52.31507 4.75303 -3 ft 13 kts 269°
2026-04-29 12:35 52.31502 4.75146 -3 ft 15 kts 266°
2026-04-29 12:35 52.31496 4.74973 -2 ft 16 kts 266°
2026-04-29 12:36 52.31489 4.74788 -2 ft 17 kts 266°
2026-04-29 12:36 52.31483 4.74591 -2 ft 18 kts 267°
2026-04-29 12:36 52.31476 4.74384 -2 ft 17 kts 267°
2026-04-29 12:36 52.31481 4.74198 -2 ft 15 kts 307°
2026-04-29 12:37 52.31566 4.74160 -2 ft 12 kts 359°
2026-04-29 12:37 52.31660 4.74161 -2 ft 14 kts
2026-04-29 12:37 52.31762 4.74167 -2 ft 15 kts
2026-04-29 12:37 52.31873 4.74179 -2 ft 16 kts
2026-04-29 12:38 52.31990 4.74182 -2 ft 17 kts 343°
2026-04-29 12:38 52.32039 4.74010 -3 ft 16 kts 275°
2026-04-29 12:38 52.32045 4.73853 -2 ft 14 kts 273°
2026-04-29 12:38 52.32051 4.73678 -2 ft 17 kts 274°
2026-04-29 12:39 52.32059 4.73475 -2 ft 19 kts 277°
2026-04-29 12:39 52.32133 4.73291 -2 ft 21 kts 319°
2026-04-29 12:39 52.32248 4.73133 -2 ft 22 kts 320°
2026-04-29 12:39 52.32369 4.72959 -2 ft 24 kts 318°
2026-04-29 12:40 52.32500 4.72778 -2 ft 25 kts 319°
2026-04-29 12:40 52.32622 4.72604 -2 ft 20 kts 319°
2026-04-29 12:40 52.32726 4.72432 -2 ft 22 kts 311°
2026-04-29 12:40 52.32833 4.72236 -2 ft 24 kts 312°
2026-04-29 12:41 52.32946 4.72027 -2 ft 25 kts 311°
2026-04-29 12:41 52.33065 4.71807 -2 ft 26 kts 311°
2026-04-29 12:41 52.33150 4.71590 -2 ft 21 kts 271°
2026-04-29 12:41 52.33159 4.71371 -2 ft 20 kts 307°
2026-04-29 12:42 52.33233 4.71236 -2 ft 12 kts 313°
2026-04-29 12:42 52.33292 4.71129 -3 ft 14 kts 310°
2026-04-29 12:42 52.33356 4.71008 -3 ft 15 kts 316°
2026-04-29 12:42 52.33454 4.70936 -3 ft 16 kts
2026-04-29 12:43 52.33616 4.70952 0 ft 48 kts
2026-04-29 12:43 52.34198 4.71010 -4 ft 117 kts
2026-04-29 12:43 52.35201 4.71087 63 ft 163 kts
2026-04-29 12:43 52.36347 4.71192 673 ft 167 kts
2026-04-29 12:44 52.37515 4.71280 1343 ft 172 kts
2026-04-29 12:44 52.38748 4.71358 2101 ft 177 kts
2026-04-29 12:44 52.39972 4.71430 2826 ft 180 kts 10°
2026-04-29 12:44 52.41284 4.71564 3283 ft 200 kts 12°
2026-04-29 12:45 52.42768 4.71370 3712 ft 230 kts 351°
2026-04-29 12:45 52.44269 4.70009 4162 ft 264 kts 323°
2026-04-29 12:45 52.45513 4.67608 4790 ft 287 kts 305°
2026-04-29 12:45 52.46344 4.64572 5701 ft 297 kts 287°
2026-04-29 12:46 52.46649 4.61223 6730 ft 299 kts 271°
2026-04-29 12:46 52.46530 4.57823 7696 ft 300 kts 258°
2026-04-29 12:46 52.45869 4.54571 8634 ft 302 kts 241°
2026-04-29 12:46 52.44665 4.51757 9552 ft 303 kts 223°
2026-04-29 12:47 52.43015 4.49626 10413 ft 303 kts 208°
2026-04-29 12:47 52.41259 4.47504 10783 ft 329 kts 224°
2026-04-29 12:47 52.39881 4.44336 11103 ft 352 kts 240°
2026-04-29 12:47 52.38823 4.40657 11761 ft 361 kts 247°
2026-04-29 12:48 52.37876 4.36828 12520 ft 365 kts 248°
2026-04-29 12:48 52.36899 4.32965 13298 ft 369 kts 246°
2026-04-29 12:48 52.35834 4.29112 14050 ft 373 kts 244°
2026-04-29 12:48 52.34674 4.25286 14729 ft 378 kts 242°
2026-04-29 12:49 52.33441 4.21474 15400 ft 381 kts 241°
2026-04-29 12:49 52.32165 4.17651 16063 ft 385 kts 241°
2026-04-29 12:49 52.30695 4.13987 16720 ft 388 kts 231°
2026-04-29 12:49 52.29001 4.10533 17389 ft 391 kts 231°
2026-04-29 12:50 52.27253 4.06936 16693 ft 431 kts 231°
2026-04-29 12:50 52.25418 4.03112 16655 ft 418 kts 231°
2026-04-29 12:50 52.23694 3.99462 16870 ft 394 kts 232°
2026-04-29 12:50 52.22088 3.96008 17047 ft 371 kts 232°
2026-04-29 12:51 52.20554 3.92759 17175 ft 352 kts 231°
2026-04-29 12:51 52.19078 3.89702 17299 ft 338 kts 231°
2026-04-29 12:51 52.17568 3.86606 17442 ft 360 kts 231°
2026-04-29 12:51 52.15969 3.83323 17571 ft 380 kts 231°
2026-04-29 12:52 52.14300 3.79888 17911 ft 392 kts 231°
2026-04-29 12:52 52.13311 3.77846 18228 ft 395 kts 231°
2026-04-29 12:52 52.11605 3.74309 18793 ft 399 kts 232°
2026-04-29 12:52 52.09883 3.70737 19328 ft 403 kts 231°
2026-04-29 12:53 52.08146 3.67141 19875 ft 406 kts 231°
2026-04-29 12:53 52.06390 3.63521 20420 ft 409 kts 231°
2026-04-29 12:53 52.04618 3.59878 20965 ft 412 kts 231°
2026-04-29 12:53 52.02830 3.56211 21499 ft 415 kts 231°
2026-04-29 12:54 52.01033 3.52530 22045 ft 418 kts 230°
2026-04-29 12:54 51.99221 3.48811 22582 ft 421 kts 231°
2026-04-29 12:54 51.97433 3.45012 23099 ft 424 kts 232°
2026-04-29 12:54 51.95678 3.41143 23609 ft 427 kts 233°
2026-04-29 12:55 51.93935 3.37227 24066 ft 430 kts 233°
2026-04-29 12:55 51.92176 3.33252 24274 ft 439 kts 233°
2026-04-29 12:55 51.90368 3.29191 24329 ft 450 kts 233°
2026-04-29 12:55 51.88523 3.25092 24325 ft 462 kts 232°
2026-04-29 12:56 51.86570 3.20799 24322 ft 473 kts 232°
2026-04-29 12:56 51.84744 3.16519 24313 ft 459 kts 239°
2026-04-29 12:56 51.83299 3.12059 24319 ft 438 kts 242°
2026-04-29 12:56 51.81932 3.07718 24321 ft 430 kts 242°
2026-04-29 12:57 51.80579 3.03429 24316 ft 428 kts 242°
2026-04-29 12:57 51.79226 2.99157 24319 ft 427 kts 242°
2026-04-29 12:57 51.77871 2.94894 24313 ft 427 kts 242°
2026-04-29 12:57 51.76511 2.90629 24314 ft 427 kts 242°
2026-04-29 12:58 51.75153 2.86375 24317 ft 427 kts 241°
2026-04-29 12:58 51.73795 2.82116 24314 ft 427 kts 241°
2026-04-29 12:58 51.72434 2.77860 24313 ft 427 kts 241°
2026-04-29 12:58 51.71072 2.73610 24306 ft 427 kts 241°
2026-04-29 12:59 51.69747 2.69331 24308 ft 427 kts 245°
2026-04-29 12:59 51.68790 2.64798 24305 ft 428 kts 255°
2026-04-29 12:59 51.68272 2.60072 24305 ft 429 kts 262°
2026-04-29 12:59 51.67852 2.55314 24300 ft 429 kts 261°
2026-04-29 13:00 51.67421 2.50558 24303 ft 429 kts 261°
2026-04-29 13:00 51.66985 2.45802 24301 ft 429 kts 261°
2026-04-29 13:00 51.66548 2.41051 24303 ft 429 kts 261°
2026-04-29 13:00 51.66110 2.36303 24301 ft 429 kts 261°
2026-04-29 13:01 51.65669 2.31546 24298 ft 429 kts 260°
2026-04-29 13:01 51.65226 2.26792 24300 ft 429 kts 260°
2026-04-29 13:01 51.64784 2.22046 24300 ft 429 kts 260°
2026-04-29 13:01 51.64339 2.17292 24292 ft 431 kts 260°
2026-04-29 13:02 51.63891 2.12538 23628 ft 426 kts 261°
2026-04-29 13:02 51.63453 2.07868 23300 ft 419 kts 261°
2026-04-29 13:02 51.63019 2.03196 22464 ft 425 kts 260°
2026-04-29 13:02 51.62585 1.98518 22033 ft 420 kts 260°
2026-04-29 13:03 51.62137 1.93892 21564 ft 416 kts 257°
2026-04-29 13:03 51.61212 1.89526 21119 ft 409 kts 242°
2026-04-29 13:03 51.59891 1.85490 20607 ft 407 kts 239°
2026-04-29 13:03 51.58547 1.81496 20106 ft 405 kts 239°
2026-04-29 13:04 51.57194 1.77525 19578 ft 404 kts 239°
2026-04-29 13:04 51.55819 1.73604 19234 ft 398 kts 237°
2026-04-29 13:04 51.54399 1.69892 19150 ft 383 kts 235°
2026-04-29 13:04 51.52971 1.66368 19070 ft 369 kts 234°
2026-04-29 13:05 51.51562 1.62979 18997 ft 364 kts 233°
2026-04-29 13:05 51.50151 1.59609 18920 ft 364 kts 233°
2026-04-29 13:05 51.48744 1.56230 18843 ft 364 kts 234°
2026-04-29 13:05 51.47344 1.52841 18770 ft 364 kts 234°
2026-04-29 13:06 51.45929 1.49394 18538 ft 380 kts 234°
2026-04-29 13:06 51.44470 1.45827 18128 ft 385 kts 234°
2026-04-29 13:06 51.43004 1.42232 17734 ft 385 kts 234°
2026-04-29 13:06 51.41544 1.38648 17343 ft 383 kts 234°
2026-04-29 13:07 51.40092 1.35085 16954 ft 382 kts 234°
2026-04-29 13:07 51.38643 1.31536 16567 ft 379 kts 234°
2026-04-29 13:07 51.37204 1.28011 16190 ft 377 kts 234°
2026-04-29 13:07 51.35769 1.24511 15817 ft 375 kts 233°
2026-04-29 13:08 51.34339 1.21039 15444 ft 373 kts 233°
2026-04-29 13:08 51.32916 1.17587 15080 ft 370 kts 233°
2026-04-29 13:08 51.31501 1.14159 14718 ft 368 kts 233°
2026-04-29 13:08 51.30096 1.10759 14358 ft 366 kts 233°
2026-04-29 13:09 51.28694 1.07371 13985 ft 363 kts 233°
2026-04-29 13:09 51.27305 1.04018 13586 ft 361 kts 232°
2026-04-29 13:09 51.25924 1.00692 13180 ft 358 kts 233°
2026-04-29 13:09 51.24551 0.97392 12794 ft 355 kts 232°
2026-04-29 13:10 51.23187 0.94116 12406 ft 352 kts 232°
2026-04-29 13:10 51.21836 0.90875 12024 ft 350 kts 232°
2026-04-29 13:10 51.20492 0.87650 11648 ft 348 kts 232°
2026-04-29 13:10 51.19158 0.84445 11276 ft 346 kts 232°
2026-04-29 13:11 51.17849 0.81310 10914 ft 344 kts 232°
2026-04-29 13:11 51.16524 0.78143 10643 ft 342 kts 232°
2026-04-29 13:11 51.15206 0.74994 10290 ft 340 kts 232°
2026-04-29 13:11 51.13905 0.71888 9910 ft 335 kts 232°
2026-04-29 13:12 51.12622 0.68832 9682 ft 326 kts 232°
2026-04-29 13:12 51.11386 0.65887 9556 ft 314 kts 232°
2026-04-29 13:12 51.10188 0.63036 9431 ft 307 kts 232°
2026-04-29 13:12 51.09003 0.60229 9305 ft 305 kts 232°
2026-04-29 13:13 51.07819 0.57427 9177 ft 305 kts 232°
2026-04-29 13:13 51.06637 0.54632 9051 ft 304 kts 232°
2026-04-29 13:13 51.05459 0.51844 8918 ft 303 kts 232°
2026-04-29 13:13 51.04281 0.49059 8788 ft 303 kts 231°
2026-04-29 13:14 51.03104 0.46281 8658 ft 303 kts 232°
2026-04-29 13:14 51.01926 0.43503 8517 ft 303 kts 231°
2026-04-29 13:14 51.00751 0.40738 8382 ft 302 kts 231°
2026-04-29 13:14 50.99576 0.37975 8246 ft 302 kts 231°
2026-04-29 13:15 50.98562 0.35600 7975 ft 303 kts 231°
2026-04-29 13:15 50.97381 0.32826 7643 ft 300 kts 231°
2026-04-29 13:15 50.96234 0.30118 7467 ft 291 kts 232°
2026-04-29 13:15 50.95410 0.27311 7332 ft 285 kts 253°
2026-04-29 13:16 50.95231 0.24236 7179 ft 278 kts 275°
2026-04-29 13:16 50.95520 0.21240 6906 ft 274 kts 281°
2026-04-29 13:16 50.95863 0.18364 6614 ft 273 kts 281°
2026-04-29 13:16 50.96221 0.15415 6257 ft 272 kts 281°
2026-04-29 13:17 50.96577 0.12474 5885 ft 271 kts 281°
2026-04-29 13:17 50.96928 0.09540 5581 ft 271 kts 281°
2026-04-29 13:17 50.97280 0.06606 5299 ft 270 kts 281°
2026-04-29 13:17 50.97633 0.03684 4998 ft 269 kts 281°
2026-04-29 13:18 50.97865 0.01760 4774 ft 268 kts 281°
2026-04-29 13:18 50.98216 -0.01143 4498 ft 267 kts 281°
2026-04-29 13:18 50.98560 -0.04035 4180 ft 266 kts 281°
2026-04-29 13:18 50.98899 -0.06920 3879 ft 266 kts 281°
2026-04-29 13:19 50.99236 -0.09802 3578 ft 266 kts 281°
2026-04-29 13:19 50.99574 -0.12696 3264 ft 266 kts 281°
2026-04-29 13:19 50.99907 -0.15568 3032 ft 261 kts 282°
2026-04-29 13:19 51.00227 -0.18402 3007 ft 261 kts 281°
2026-04-29 13:20 51.00549 -0.21240 3001 ft 261 kts 281°
2026-04-29 13:20 51.00880 -0.24096 3002 ft 264 kts 281°
2026-04-29 13:20 51.01209 -0.26961 3005 ft 264 kts 281°
2026-04-29 13:20 51.01543 -0.29818 2995 ft 262 kts 282°
2026-04-29 13:21 51.01857 -0.32664 2997 ft 262 kts 281°
2026-04-29 13:21 51.02161 -0.35472 3002 ft 251 kts 281°
2026-04-29 13:21 51.02454 -0.38137 2992 ft 238 kts 281°
2026-04-29 13:21 51.02726 -0.40654 3023 ft 227 kts 281°
2026-04-29 13:22 51.02998 -0.43089 2997 ft 223 kts 281°
2026-04-29 13:22 51.03272 -0.45501 2998 ft 221 kts 281°
2026-04-29 13:22 51.03603 -0.47874 2980 ft 219 kts 295°
2026-04-29 13:22 51.04529 -0.49667 2996 ft 207 kts 332°
2026-04-29 13:23 51.05759 -0.50807 2998 ft 204 kts 340°
2026-04-29 13:23 51.06995 -0.51826 2999 ft 202 kts 341°
2026-04-29 13:23 51.08238 -0.52861 3000 ft 201 kts 341°
2026-04-29 13:23 51.09488 -0.53915 2999 ft 198 kts 341°
2026-04-29 13:24 51.10728 -0.54386 2984 ft 174 kts 18°
2026-04-29 13:24 51.11685 -0.53556 2992 ft 153 kts 59°
2026-04-29 13:24 51.11875 -0.52002 2994 ft 149 kts 105°
2026-04-29 13:24 51.11429 -0.50507 3009 ft 148 kts 107°
2026-04-29 13:25 51.11160 -0.48941 3009 ft 146 kts 98°
2026-04-29 13:25 51.11201 -0.45744 3009 ft 145 kts 84°
2026-04-29 13:25 51.11361 -0.44174 3006 ft 139 kts 82°
2026-04-29 13:26 51.11538 -0.42735 2945 ft 127 kts 82°
2026-04-29 13:26 51.11714 -0.41396 2831 ft 122 kts 80°
2026-04-29 13:26 51.11892 -0.40077 2700 ft 122 kts 80°
2026-04-29 13:26 51.12072 -0.38768 2537 ft 121 kts 80°
2026-04-29 13:27 51.12253 -0.37461 2386 ft 120 kts 78°
2026-04-29 13:27 51.12434 -0.36162 2219 ft 120 kts 77°
2026-04-29 13:27 51.12613 -0.34872 2048 ft 120 kts 77°
2026-04-29 13:27 51.12795 -0.33568 1888 ft 119 kts 76°
2026-04-29 13:28 51.12975 -0.32278 1730 ft 119 kts 76°
2026-04-29 13:28 51.13156 -0.30982 1559 ft 121 kts 75°
2026-04-29 13:28 51.13337 -0.29680 1398 ft 120 kts 75°
2026-04-29 13:28 51.13516 -0.28393 1242 ft 119 kts 76°
2026-04-29 13:29 51.13697 -0.27088 1068 ft 122 kts 76°
2026-04-29 13:29 51.13877 -0.25794 902 ft 121 kts 74°
2026-04-29 13:29 51.14065 -0.24472 737 ft 123 kts 74°
2026-04-29 13:29 51.14236 -0.23154 580 ft 122 kts 75°
2026-04-29 13:30 51.14422 -0.21847 393 ft 121 kts 75°
2026-04-29 13:30 51.14607 -0.20539 242 ft 120 kts 73°
2026-04-29 13:30 51.14771 -0.19371 214 ft 87 kts 79°
2026-04-29 13:30 51.14867 -0.18691 206 ft 40 kts 76°
2026-04-29 13:31 51.14971 -0.18460 205 ft 23 kts 49°
2026-04-29 13:31 51.15049 -0.18305 211 ft 13 kts 50°
2026-04-29 13:31 51.15061 -0.18281 204 ft 0 kts 50°
2026-04-29 13:32 51.15064 -0.18274 204 ft 2 kts 51°
2026-04-29 13:32 51.15074 -0.18256 210 ft 3 kts 51°
2026-04-29 13:32 51.15084 -0.18236 208 ft 2 kts 51°
2026-04-29 13:33 51.15090 -0.18223 205 ft 1 kts 51°
2026-04-29 13:33 51.15103 -0.18203 205 ft 4 kts 36°
2026-04-29 13:33 51.15144 -0.18198 205 ft 8 kts 350°
2026-04-29 13:33 51.15213 -0.18220 205 ft 12 kts 348°
2026-04-29 13:34 51.15311 -0.18252 214 ft 16 kts 348°
2026-04-29 13:34 51.15435 -0.18296 205 ft 20 kts 347°
2026-04-29 13:34 51.15566 -0.18344 205 ft 18 kts 347°
2026-04-29 13:34 51.15649 -0.18324 213 ft 10 kts 56°
2026-04-29 13:35 51.15667 -0.18197 209 ft 14 kts 78°
2026-04-29 13:35 51.15678 -0.18117 215 ft 8 kts 77°
2026-04-29 13:35 51.15689 -0.18042 208 ft 5 kts 77°
2026-04-29 13:35 51.15699 -0.17969 205 ft 9 kts 77°
2026-04-29 13:36 51.15715 -0.17858 205 ft 11 kts 77°
2026-04-29 13:36 51.15726 -0.17777 207 ft 6 kts 78°
2026-04-29 13:36 51.15729 -0.17750 205 ft 1 kts 78°
2026-04-29 13:36 51.15724 -0.17722 205 ft 2 kts 135°
2026-04-29 13:37 51.15694 -0.17711 205 ft 6 kts 163°
2026-04-29 13:37 51.15667 -0.17702 215 ft 2 kts 170°
2026-04-29 13:37 51.15659 -0.17700 213 ft 0 kts 168°